Location: Oberkirch
(48.5323°N, 8.0787°E)
Time: 06:27:12
(UTC+00:00)

CENTAUR R/B - Pass Details

Date: 08 November 2025
Orbit: 633 x 1547 km, 63.4° (Epoch: 12 December)

Event Time Altitude Azimuth Distance (km) Brightness Sun altitude
Exits shadow 05:39:20 - 318° (NW) 3,758 5.0 -7.9°
Reaches altitude 10° 05:41:02 10° 321° (NW) 3,208 4.7 -7.6°
Maximum altitude 05:49:00 64° 42° (NE) 1,548 3.7 -6.4°
Drops below altitude 10° 05:58:14 10° 123° (ESE) 3,697 7.2 -4.9°
Sets 06:01:26 0° 126° (SE) 4,703 7.9 -4.4°
